Lid_Strength_Index
4 4 4 4 3 3 2 2 2 2 2 3 3 3 3 3 3 7 9 7 6 3 4 7 9 10 10 12 12 12 18 20 18 18 16 13 14 12 11 12 11 10 11 10 9
4 4 4 4 4 4 3 3 2 3 3 3 3 4 4 4 7 9 5 4 4 4 8 9 11 10 13 12 12 14 18 17 15 15 16 14 14 13 13 13 12 11 10 9 9
4 4 5 5 4 4 3 3 3 3 3 3 4 4 4 5 10 10 4 4 4 5 7 8 9 11 13 12 13 14 17 14 13 13 12 13 13 13 14 14 13 12 11 10 9
4 4 5 5 4 4 4 3 4 4 4 4 4 4 4 7 17 8 4 4 4 7 8 10 11 13 14 14 12 15 13 13 12 12 12 13 13 13 13 13 11 11 10 10 10
4 5 5 5 5 4 4 4 4 4 4 4 4 4 7 13 12 7 4 6 8 8 10 11 13 13 15 14 13 15 14 12 12 12 12 12 13 13 13 11 11 10 9 10 10
4 5 5 5 5 5 5 5 5 4 5 4 4 4 10 16 8 8 8 8 8 9 10 11 12 11 13 13 14 13 13 13 12 12 12 13 13 13 12 11 11 11 11 10 10
4 5 5 5 5 5 5 5 5 5 5 4 4 6 13 13 9 9 9 9 9 9 11 10 9 11 12 14 11 12 15 13 13 12 12 12 14 14 11 10 13 14 14 13 12
4 5 5 5 5 5 5 5 5 5 5 4 4 8 14 9 10 9 9 9 8 8 8 8 8 10 12 11 12 14 15 17 13 11 10 11 17 13 11 11 15 15 15 14 13
4 5 5 5 5 5 5 5 4 6 5 5 9 11 15 7 11 9 9 10 9 9 8 7 9 12 12 15 18 16 18 17 14 10 11 12 15 12 12 14 16 16 16 15 14
4 5 5 5 5 5 5 5 6 7 7 7 10 15 12 13 11 10 9 9 10 10 10 11 13 16 16 17 23 19 18 15 15 12 11 13 14 12 14 14 16 16 16 16 15
4 5 5 5 5 5 8 11 14 12 13 16 15 14 13 10 9 10 9 10 10 12 16 14 17 18 17 15 15 16 17 16 14 11 13 14 14 15 14 15 17 16 15 16 15
5 5 5 5 5 6 11 13 13 13 17 13 13 12 11 11 13 11 9 13 14 17 15 16 19 15 13 14 15 16 17 16 14 12 13 14 16 15 14 15 16 16 15 15 15
5 5 5 5 6 11 13 13 10 10 16 15 13 13 12 12 14 13 11 13 15 16 17 18 16 13 14 15 17 17 16 16 16 13 13 14 17 16 14 13 15 14 14 14 15
5 5 5 5 10 12 14 11 10 10 20 17 15 13 12 12 14 11 10 13 15 17 16 16 13 14 15 16 16 24 14 15 15 19 20 15 23 17 16 16 16 16 16 16 15
5 5 6 7 12 13 12 10 10 12 27 17 15 11 12 14 14 13 10 12 16 16 17 17 16 16 20 16 16 20 15 15 15 20 21 16 21 18 17 19 19 17 17 16 15
5 5 7 9 11 12 11 11 12 20 25 19 16 16 15 15 14 12 13 12 13 15 15 16 13 15 16 15 15 15 17 14 13 20 28 19 21 21 22 21 20 18 18 17 16
5 6 8 9 12 11 11 13 20 23 18 21 19 16 17 17 16 15 16 17 19 23 22 18 16 15 14 19 16 18 21 26 25 26 27 17 20 23 20 19 20 20 20 18 16
5 6 8 10 11 11 12 17 24 23 23 18 18 17 18 17 17 16 18 19 17 18 23 26 23 18 15 20 24 20 21 25 27 27 24 16 23 21 18 18 19 19 18 18 17
6 9 10 11 10 11 14 22 21 21 18 19 18 20 20 17 18 17 19 19 17 18 24 25 24 16 16 17 19 20 22 18 24 22 25 21 18 17 16 19 21 22 19 19 17
10 10 10 11 11 12 17 18 21 18 18 18 21 20 24 22 20 20 19 17 17 15 17 21 23 17 17 17 17 19 18 23 22 27 26 21 22 25 23 23 22 22 20 19 18
10 14 11 11 12 14 18 20 20 18 17 19 21 21 20 22 20 21 19 17 16 16 15 19 22 19 18 25 26 22 23 22 22 22 25 24 21 25 25 24 23 21 19 19 18
11 16 11 12 16 17 20 20 17 19 17 17 17 18 21 22 22 19 18 17 15 16 18 17 23 24 25 23 19 20 24 23 27 26 23 24 23 19 22 23 21 20 19 19 17
14 14 11 12 18 19 19 19 18 19 18 18 18 18 21 22 23 21 18 15 14 16 19 19 20 27 24 21 18 24 21 22 22 24 28 28 27 21 23 23 22 22 20 19 18
13 16 15 14 15 18 19 20 21 18 18 17 18 18 22 24 20 24 18 15 14 15 12 15 21 25 25 25 27 25 24 22 24 32 30 28 28 25 24 26 25 24 23 22 21
13 16 16 19 17 17 18 19 21 21 18 18 19 20 21 24 26 25 19 17 15 13 16 18 24 27 24 28 25 25 27 26 29 29 29 27 28 28 27 27 26 25 24 23 23
15 16 17 17 17 17 17 19 19 19 19 20 22 20 21 22 20 22 19 18 17 16 16 17 23 22 24 26 26 26 23 26 26 30 31 31 29 28 27 27 27 26 26 26 25
13 13 13 16 17 17 18 17 18 18 18 18 19 19 21 19 18 18 17 16 17 21 19 21 23 26 28 24 22 25 26 30 30 32 28 30 25 29 29 31 30 28 26 26 25